This is the latest recevied weather packets stored in our database for station/object K1RFS. If no packets are shown the sender has not sent any weather packets the latest 10 day(s).
| Time | Temp. | Humidity | Pressure | Rain* | Wind** | Luminosity | Snow |
|---|---|---|---|---|---|---|---|
| 1788016437 | 17.22° C | 91% | 1005.5 hPa | 0 mm | - | 78 W/m² | - |
| 1788016137 | 17.22° C | 91% | 1005.3 hPa | 0 mm | - | 53 W/m² | - |
| 1788015836 | 17.22° C | 91% | 1005.2 hPa | 0 mm | - | 79 W/m² | - |
| 1788015531 | 17.22° C | 91% | 1005.5 hPa | 0 mm | - | 51 W/m² | - |
| 1788015226 | 16.67° C | 91% | 1005.3 hPa | 0 mm | - | 59 W/m² | - |
| 1788014924 | 16.67° C | 91% | 1005.3 hPa | 0 mm | - | 55 W/m² | - |
| 1788014619 | 16.67° C | 90% | 1005 hPa | 1.78 mm | - | 60 W/m² | - |
| 1788014315 | 16.67° C | 90% | 1004.9 hPa | 1.78 mm | - | 38 W/m² | - |
| 1788014010 | 16.67° C | 89% | 1005.2 hPa | 7.87 mm | - | 32 W/m² | - |
| 1788013710 | 17.22° C | 88% | 1005.4 hPa | 11.94 mm | - | 25 W/m² | - |
| 1788013409 | 17.78° C | 85% | 1005.2 hPa | 10.16 mm | - | 17 W/m² | - |
| 1788013109 | 17.78° C | 83% | 1005.4 hPa | 10.67 mm | - | 11 W/m² | - |
| 1788012808 | 17.78° C | 82% | 1005.5 hPa | 6.1 mm | - | 11 W/m² | - |
| 1788012503 | 17.78° C | 79% | 1005.5 hPa | 1.27 mm | - | 7 W/m² | - |
| 1788012203 | 17.22° C | 83% | 1005.2 hPa | 0 mm | - | 3 W/m² | - |
| 1788011902 | 17.22° C | 84% | 1004.4 hPa | 0 mm | - | 7 W/m² | - |
| 1788011600 | 17.22° C | 85% | 1004.2 hPa | 0 mm | - | 28 W/m² | - |
| 1788011297 | 16.67° C | 86% | 1004.4 hPa | 0 mm | - | 22 W/m² | - |
| 1788010995 | 16.67° C | 87% | 1004.4 hPa | 0 mm | - | 11 W/m² | - |
| 1788010691 | 16.67° C | 88% | 1004.4 hPa | 0 mm | - | 18 W/m² | - |
| 1788010390 | 16.67° C | 88% | 1004 hPa | 0 mm | - | 18 W/m² | - |
| 1788010090 | 16.67° C | 88% | 1003.9 hPa | 0 mm | - | 13 W/m² | - |
| 1788009785 | 16.67° C | 88% | 1003.8 hPa | 0 mm | - | 11 W/m² | - |
| 1788009483 | 16.67° C | 88% | 1003.8 hPa | 0 mm | - | 8 W/m² | - |
| 1788009178 | 16.67° C | 88% | 1003.9 hPa | 0 mm | - | 7 W/m² | - |
* Rain latest hour (hover to see other rain measurements)
** Current wind speed in m/s (hover to see current wind gust speed)